Time,TemperatureF,DewpointF,PressureIn,WindDirection,WindDirectionDegrees,WindSpeedMPH,WindSpeedGustMPH,Humidity,HourlyPrecipIn,Conditions,Clouds,dailyrainin,SoftwareType,DateUTC
2013-02-09 00:04:00,43.5,34.7,29.97,WNW,293,0.0,0.0,71,0.00,,,0.00,WUHU216HW,2013-02-09 08:04:00,
2013-02-09 00:09:00,43.5,34.7,29.97,WNW,293,0.0,0.0,71,0.00,,,0.00,WUHU216HW,2013-02-09 08:09:00,
2013-02-09 00:14:00,43.5,35.0,29.97,WNW,293,0.0,0.0,72,0.00,,,0.00,WUHU216HW,2013-02-09 08:14:00,
2013-02-09 00:19:00,43.3,34.9,29.97,WNW,293,0.0,0.0,72,0.00,,,0.00,WUHU216HW,2013-02-09 08:19:00,
2013-02-09 00:24:00,43.3,34.9,29.97,WNW,293,0.0,0.0,72,0.00,,,0.00,WUHU216HW,2013-02-09 08:24:00,
2013-02-09 00:29:00,43.1,34.7,29.97,SSW,203,0.0,0.0,72,0.00,,,0.00,WUHU216HW,2013-02-09 08:29:00,
2013-02-09 00:35:00,42.9,34.6,29.97,SSW,203,0.0,0.0,72,0.00,,,0.00,WUHU216HW,2013-02-09 08:35:00,
2013-02-09 00:40:00,42.9,34.6,29.97,SSW,203,0.0,0.0,72,0.00,,,0.00,WUHU216HW,2013-02-09 08:40:00,
2013-02-09 00:45:00,42.9,34.6,29.97,SSW,203,0.0,0.0,72,0.00,,,0.00,WUHU216HW,2013-02-09 08:45:00,
2013-02-09 00:50:00,42.6,34.2,29.97,SSW,203,0.0,0.0,72,0.00,,,0.00,WUHU216HW,2013-02-09 08:50:00,
2013-02-09 00:55:00,42.6,34.2,29.97,SSW,203,0.0,0.0,72,0.00,,,0.00,WUHU216HW,2013-02-09 08:55:00,
2013-02-09 01:00:00,42.6,34.2,29.97,SW,225,0.0,0.0,72,0.00,,,0.00,WUHU216HW,2013-02-09 09:00:00,
2013-02-09 01:05:00,42.6,34.2,29.97,SSW,203,0.0,0.0,72,0.00,,,0.00,WUHU216HW,2013-02-09 09:05:00,
2013-02-09 01:10:00,42.4,34.0,29.97,SSW,203,0.0,0.0,72,0.00,,,0.00,WUHU216HW,2013-02-09 09:10:00,
2013-02-09 01:15:00,42.4,34.0,29.97,SSW,203,0.0,0.0,72,0.00,,,0.00,WUHU216HW,2013-02-09 09:15:00,
2013-02-09 01:20:00,42.4,34.0,29.97,SSW,203,0.0,0.0,72,0.00,,,0.00,WUHU216HW,2013-02-09 09:20:00,
2013-02-09 01:26:00,42.0,34.0,29.97,SSW,203,0.0,0.0,73,0.00,,,0.00,WUHU216HW,2013-02-09 09:26:00,
2013-02-09 01:31:00,42.0,34.0,29.97,SSW,203,0.0,0.0,73,0.00,,,0.00,WUHU216HW,2013-02-09 09:31:00,
2013-02-09 01:36:00,42.0,34.0,29.97,SSW,203,0.0,0.0,73,0.00,,,0.00,WUHU216HW,2013-02-09 09:36:00,
2013-02-09 01:41:00,42.0,33.7,29.97,SW,225,0.0,0.0,72,0.00,,,0.00,WUHU216HW,2013-02-09 09:41:00,
2013-02-09 01:46:00,41.9,33.5,29.98,SW,225,0.0,0.0,72,0.00,,,0.00,WUHU216HW,2013-02-09 09:46:00,
2013-02-09 01:51:00,41.9,33.5,29.97,SW,225,0.0,0.0,72,0.00,,,0.00,WUHU216HW,2013-02-09 09:51:00,
2013-02-09 01:56:00,41.9,33.8,29.97,SW,225,0.0,0.0,73,0.00,,,0.00,WUHU216HW,2013-02-09 09:56:00,
2013-02-09 02:01:00,41.9,33.8,29.97,SW,225,0.0,0.0,73,0.00,,,0.00,WUHU216HW,2013-02-09 10:01:00,
2013-02-09 02:06:00,41.9,33.8,29.98,SW,225,0.0,0.0,73,0.00,,,0.00,WUHU216HW,2013-02-09 10:06:00,
2013-02-09 02:11:00,41.9,33.8,29.98,SW,225,0.0,0.0,73,0.00,,,0.00,WUHU216HW,2013-02-09 10:11:00,
2013-02-09 02:16:00,41.9,33.8,29.98,SW,225,0.0,0.0,73,0.00,,,0.00,WUHU216HW,2013-02-09 10:16:00,
2013-02-09 02:22:00,41.9,33.8,29.98,SW,225,0.0,0.0,73,0.00,,,0.00,WUHU216HW,2013-02-09 10:22:00,
2013-02-09 02:27:00,41.9,33.8,29.97,SW,225,0.0,0.0,73,0.00,,,0.00,WUHU216HW,2013-02-09 10:27:00,
2013-02-09 02:32:00,41.7,33.6,29.98,SW,225,0.0,0.0,73,0.00,,,0.00,WUHU216HW,2013-02-09 10:32:00,
2013-02-09 02:37:00,41.5,33.5,29.98,SW,225,0.0,0.0,73,0.00,,,0.00,WUHU216HW,2013-02-09 10:37:00,
2013-02-09 02:42:00,41.5,33.5,29.98,SW,225,0.0,0.0,73,0.00,,,0.00,WUHU216HW,2013-02-09 10:42:00,
2013-02-09 02:47:00,41.5,33.5,29.98,SW,225,0.0,0.0,73,0.00,,,0.00,WUHU216HW,2013-02-09 10:47:00,
2013-02-09 02:52:00,41.5,33.5,29.98,SW,225,0.0,0.0,73,0.00,,,0.00,WUHU216HW,2013-02-09 10:52:00,
2013-02-09 02:57:00,41.5,33.1,29.98,SW,225,0.0,0.0,72,0.00,,,0.00,WUHU216HW,2013-02-09 10:57:00,
2013-02-09 03:02:00,41.5,33.1,29.98,SW,225,0.0,0.0,72,0.00,,,0.00,WUHU216HW,2013-02-09 11:02:00,
2013-02-09 03:07:00,41.3,33.0,29.98,West,270,0.0,0.0,72,0.00,,,0.00,WUHU216HW,2013-02-09 11:07:00,
2013-02-09 03:12:00,41.3,33.0,29.98,WNW,293,0.0,0.0,72,0.00,,,0.00,WUHU216HW,2013-02-09 11:12:00,
2013-02-09 03:17:00,41.1,32.8,29.98,WNW,293,0.0,0.0,72,0.00,,,0.00,WUHU216HW,2013-02-09 11:17:00,
2013-02-09 03:22:00,41.1,32.8,29.98,WNW,293,0.0,0.0,72,0.00,,,0.00,WUHU216HW,2013-02-09 11:22:00,
2013-02-09 03:28:00,41.1,32.5,29.98,WNW,293,0.0,0.0,72,0.00,,,0.00,WUHU216HW,2013-02-09 11:28:00,
2013-02-09 03:33:00,41.1,32.5,29.98,WNW,293,0.0,0.0,71,0.00,,,0.00,WUHU216HW,2013-02-09 11:33:00,
2013-02-09 03:38:00,41.1,32.5,29.98,WNW,293,0.0,0.0,71,0.00,,,0.00,WUHU216HW,2013-02-09 11:38:00,
2013-02-09 03:43:00,41.1,32.8,29.98,WNW,293,0.0,0.0,72,0.00,,,0.00,WUHU216HW,2013-02-09 11:43:00,
2013-02-09 03:48:00,41.1,32.8,29.98,WNW,293,0.0,0.0,72,0.00,,,0.00,WUHU216HW,2013-02-09 11:48:00,
2013-02-09 03:53:00,41.0,32.6,29.98,WNW,293,0.0,0.0,72,0.00,,,0.00,WUHU216HW,2013-02-09 11:53:00,
2013-02-09 03:58:00,41.0,32.6,29.98,WNW,293,0.0,0.0,72,0.00,,,0.00,WUHU216HW,2013-02-09 11:58:00,
2013-02-09 04:03:00,41.0,32.6,29.98,WNW,293,0.0,0.0,72,0.00,,,0.00,WUHU216HW,2013-02-09 12:03:00,
2013-02-09 04:08:00,41.0,32.6,29.98,WNW,293,0.0,0.0,72,0.00,,,0.00,WUHU216HW,2013-02-09 12:08:00,
2013-02-09 04:13:00,40.8,32.7,29.98,WNW,293,0.0,0.0,73,0.00,,,0.00,WUHU216HW,2013-02-09 12:13:00,
2013-02-09 04:18:00,40.8,32.7,29.98,WNW,293,0.0,0.0,73,0.00,,,0.00,WUHU216HW,2013-02-09 12:18:00,
2013-02-09 04:23:00,40.8,32.7,29.98,WNW,293,0.0,0.0,73,0.00,,,0.00,WUHU216HW,2013-02-09 12:23:00,
2013-02-09 04:29:00,40.8,32.7,29.98,WNW,293,0.0,0.0,73,0.00,,,0.00,WUHU216HW,2013-02-09 12:29:00,
2013-02-09 04:34:00,40.8,32.7,29.98,WNW,293,0.0,0.0,73,0.00,,,0.00,WUHU216HW,2013-02-09 12:34:00,
2013-02-09 04:39:00,40.6,32.6,29.98,WNW,293,0.0,0.0,73,0.00,,,0.00,WUHU216HW,2013-02-09 12:39:00,
2013-02-09 04:44:00,40.4,32.4,29.98,WNW,293,0.0,0.0,73,0.00,,,0.00,WUHU216HW,2013-02-09 12:44:00,
2013-02-09 04:49:00,40.4,32.4,29.98,WNW,293,0.0,0.0,73,0.00,,,0.00,WUHU216HW,2013-02-09 12:49:00,
2013-02-09 04:54:00,40.2,32.2,29.98,WNW,293,0.0,0.0,73,0.00,,,0.00,WUHU216HW,2013-02-09 12:54:00,
2013-02-09 04:59:00,40.2,32.2,29.98,WNW,293,0.0,0.0,73,0.00,,,0.00,WUHU216HW,2013-02-09 12:59:00,
2013-02-09 05:04:00,40.2,32.2,29.98,WNW,293,0.0,0.0,73,0.00,,,0.00,WUHU216HW,2013-02-09 13:04:00,
2013-02-09 05:09:00,40.2,32.2,29.98,WNW,293,0.0,0.0,73,0.00,,,0.00,WUHU216HW,2013-02-09 13:09:00,
2013-02-09 05:14:00,40.2,32.2,29.98,WNW,293,0.0,0.0,73,0.00,,,0.00,WUHU216HW,2013-02-09 13:14:00,
2013-02-09 05:19:00,40.2,32.5,29.98,WNW,293,0.0,0.0,74,0.00,,,0.00,WUHU216HW,2013-02-09 13:19:00,
2013-02-09 05:24:00,40.2,32.5,29.98,WNW,293,0.0,0.0,74,0.00,,,0.00,WUHU216HW,2013-02-09 13:24:00,
2013-02-09 05:29:00,40.2,32.5,29.99,WNW,293,0.0,0.0,74,0.00,,,0.00,WUHU216HW,2013-02-09 13:29:00,
2013-02-09 05:35:00,40.2,32.5,29.99,WNW,293,0.0,0.0,74,0.00,,,0.00,WUHU216HW,2013-02-09 13:35:00,
2013-02-09 05:40:00,40.2,32.5,29.98,WNW,293,0.0,0.0,74,0.00,,,0.00,WUHU216HW,2013-02-09 13:40:00,
2013-02-09 05:45:00,40.2,32.5,29.99,WNW,293,0.0,0.0,74,0.00,,,0.00,WUHU216HW,2013-02-09 13:45:00,
2013-02-09 05:50:00,40.1,32.4,29.99,WNW,293,0.0,0.0,74,0.00,,,0.00,WUHU216HW,2013-02-09 13:50:00,
2013-02-09 05:55:00,40.1,32.4,29.99,WNW,293,0.0,0.0,74,0.00,,,0.00,WUHU216HW,2013-02-09 13:55:00,
2013-02-09 06:00:00,39.9,32.2,29.99,WNW,293,0.0,0.0,74,0.00,,,0.00,WUHU216HW,2013-02-09 14:00:00,
2013-02-09 06:05:00,39.9,31.9,29.99,WNW,293,0.0,0.0,73,0.00,,,0.00,WUHU216HW,2013-02-09 14:05:00,
2013-02-09 06:10:00,39.9,31.9,29.99,WNW,293,0.0,0.0,73,0.00,,,0.00,WUHU216HW,2013-02-09 14:10:00,
2013-02-09 06:15:00,39.9,31.9,29.99,WNW,293,0.0,0.0,73,0.00,,,0.00,WUHU216HW,2013-02-09 14:15:00,
2013-02-09 06:20:00,39.7,31.7,29.99,WNW,293,0.0,0.0,73,0.00,,,0.00,WUHU216HW,2013-02-09 14:20:00,
2013-02-09 06:25:00,39.7,31.7,29.99,WNW,293,0.0,0.0,73,0.00,,,0.00,WUHU216HW,2013-02-09 14:25:00,
2013-02-09 06:30:00,39.7,31.7,29.99,WNW,293,0.0,0.0,73,0.00,,,0.00,WUHU216HW,2013-02-09 14:30:00,
2013-02-09 06:36:00,39.7,31.7,30.00,WNW,293,0.0,0.0,73,0.00,,,0.00,WUHU216HW,2013-02-09 14:36:00,
2013-02-09 06:41:00,39.7,31.7,30.00,West,270,0.0,0.0,73,0.00,,,0.00,WUHU216HW,2013-02-09 14:41:00,
2013-02-09 06:46:00,39.7,31.7,29.99,West,270,0.0,0.0,73,0.00,,,0.00,WUHU216HW,2013-02-09 14:46:00,
2013-02-09 06:51:00,39.7,31.7,30.00,West,270,0.0,0.0,73,0.00,,,0.00,WUHU216HW,2013-02-09 14:51:00,
2013-02-09 06:56:00,39.5,31.5,30.00,West,270,0.0,0.0,73,0.00,,,0.00,WUHU216HW,2013-02-09 14:56:00,
2013-02-09 07:01:00,39.5,31.5,30.00,West,270,0.0,0.0,73,0.00,,,0.00,WUHU216HW,2013-02-09 15:01:00,
2013-02-09 07:06:00,39.7,31.7,30.00,SW,225,0.0,0.0,73,0.00,,,0.00,WUHU216HW,2013-02-09 15:06:00,
2013-02-09 07:11:00,39.7,31.7,30.00,SW,225,0.0,0.0,73,0.00,,,0.00,WUHU216HW,2013-02-09 15:11:00,
2013-02-09 07:16:00,39.7,31.7,30.00,SW,225,0.0,0.0,73,0.00,,,0.00,WUHU216HW,2013-02-09 15:16:00,
2013-02-09 07:21:00,39.9,31.9,30.01,West,270,0.0,0.0,73,0.00,,,0.00,WUHU216HW,2013-02-09 15:21:00,
2013-02-09 07:26:00,39.9,31.9,30.00,West,270,0.0,0.0,73,0.00,,,0.00,WUHU216HW,2013-02-09 15:26:00,
2013-02-09 07:32:00,39.9,31.9,30.01,West,270,0.0,0.0,73,0.00,,,0.00,WUHU216HW,2013-02-09 15:32:00,
2013-02-09 07:37:00,39.9,31.9,30.01,West,270,0.0,0.0,73,0.00,,,0.00,WUHU216HW,2013-02-09 15:37:00,
2013-02-09 07:42:00,39.9,31.9,30.01,West,270,0.0,0.0,73,0.00,,,0.00,WUHU216HW,2013-02-09 15:42:00,
2013-02-09 07:47:00,39.9,31.9,30.01,West,270,0.0,0.0,73,0.00,,,0.00,WUHU216HW,2013-02-09 15:47:00,
2013-02-09 07:52:00,39.9,31.9,30.01,West,270,0.0,0.0,73,0.00,,,0.00,WUHU216HW,2013-02-09 15:52:00,
2013-02-09 07:57:00,39.9,31.9,30.01,West,270,0.0,0.0,73,0.00,,,0.00,WUHU216HW,2013-02-09 15:57:00,
2013-02-09 08:02:00,39.9,32.2,30.01,West,270,0.0,0.0,74,0.00,,,0.00,WUHU216HW,2013-02-09 16:02:00,
2013-02-09 08:07:00,39.9,32.2,30.01,WSW,248,0.0,0.0,74,0.00,,,0.00,WUHU216HW,2013-02-09 16:07:00,
2013-02-09 08:12:00,40.1,32.4,30.01,WSW,248,0.0,0.0,74,0.00,,,0.00,WUHU216HW,2013-02-09 16:12:00,
2013-02-09 08:17:00,40.2,32.5,30.01,ESE,113,0.0,0.0,74,0.00,,,0.00,WUHU216HW,2013-02-09 16:17:00,
2013-02-09 08:22:00,40.6,33.2,30.02,ESE,113,0.0,0.0,75,0.00,,,0.00,WUHU216HW,2013-02-09 16:22:00,
2013-02-09 08:28:00,41.0,33.6,30.01,ESE,113,1.5,1.5,75,0.00,,,0.00,WUHU216HW,2013-02-09 16:28:00,
2013-02-09 08:33:00,41.5,33.8,30.01,ESE,113,1.7,1.7,74,0.00,,,0.00,WUHU216HW,2013-02-09 16:33:00,
2013-02-09 08:38:00,41.7,34.0,30.01,ESE,113,0.0,1.7,74,0.00,,,0.00,WUHU216HW,2013-02-09 16:38:00,
2013-02-09 08:43:00,42.0,34.0,30.02,ESE,113,0.0,1.7,73,0.00,,,0.00,WUHU216HW,2013-02-09 16:43:00,
2013-02-09 08:48:00,42.4,34.4,30.02,ESE,113,0.0,0.0,73,0.00,,,0.00,WUHU216HW,2013-02-09 16:48:00,
2013-02-09 08:53:00,42.4,34.0,30.03,ESE,113,0.0,0.0,72,0.00,,,0.00,WUHU216HW,2013-02-09 16:53:00,
2013-02-09 08:58:00,42.9,34.6,30.03,ESE,113,0.0,0.0,72,0.00,,,0.00,WUHU216HW,2013-02-09 16:58:00,
2013-02-09 09:03:00,43.1,34.4,30.03,ESE,113,0.0,0.0,71,0.00,,,0.00,WUHU216HW,2013-02-09 17:03:00,
2013-02-09 09:08:00,43.5,34.4,30.03,SE,135,0.0,0.0,70,0.00,,,0.00,WUHU216HW,2013-02-09 17:08:00,
2013-02-09 09:13:00,43.8,34.3,30.03,ESE,113,0.0,0.0,69,0.00,,,0.00,WUHU216HW,2013-02-09 17:13:00,
2013-02-09 09:18:00,44.0,34.5,30.03,South,180,0.0,0.0,69,0.00,,,0.00,WUHU216HW,2013-02-09 17:18:00,
2013-02-09 09:24:00,44.4,34.8,30.03,South,180,0.0,0.0,69,0.00,,,0.00,WUHU216HW,2013-02-09 17:24:00,
2013-02-09 09:29:00,44.7,34.8,30.03,SE,135,0.0,0.0,68,0.00,,,0.00,WUHU216HW,2013-02-09 17:29:00,
2013-02-09 09:34:00,44.9,35.0,30.03,SE,135,0.0,0.0,68,0.00,,,0.00,WUHU216HW,2013-02-09 17:34:00,
2013-02-09 09:39:00,45.5,35.1,30.04,SSW,203,0.0,0.0,67,0.00,,,0.00,WUHU216HW,2013-02-09 17:39:00,
2013-02-09 09:44:00,45.6,35.3,30.04,SSW,203,0.0,0.0,67,0.00,,,0.00,WUHU216HW,2013-02-09 17:44:00,
2013-02-09 09:49:00,46.2,35.4,30.04,West,270,0.0,0.0,66,0.00,,,0.00,WUHU216HW,2013-02-09 17:49:00,
2013-02-09 09:54:00,46.7,35.9,30.04,WNW,293,0.0,0.0,66,0.00,,,0.00,WUHU216HW,2013-02-09 17:54:00,
2013-02-09 09:59:00,46.9,36.3,30.04,WNW,293,0.0,0.0,66,0.00,,,0.00,WUHU216HW,2013-02-09 17:59:00,
2013-02-09 10:04:00,47.4,36.6,30.04,WNW,293,0.0,0.0,66,0.00,,,0.00,WUHU216HW,2013-02-09 18:04:00,
2013-02-09 10:09:00,47.8,36.6,30.04,WNW,293,0.0,0.0,65,0.00,,,0.00,WUHU216HW,2013-02-09 18:09:00,
2013-02-09 10:14:00,48.2,36.5,30.05,West,270,0.0,0.0,64,0.00,,,0.00,WUHU216HW,2013-02-09 18:14:00,
2013-02-09 10:20:00,48.5,36.5,30.04,West,270,0.0,0.0,63,0.00,,,0.00,WUHU216HW,2013-02-09 18:20:00,
2013-02-09 10:25:00,48.7,36.6,30.04,SW,225,0.0,0.8,63,0.00,,,0.00,WUHU216HW,2013-02-09 18:25:00,
2013-02-09 10:30:00,49.2,36.8,30.04,WNW,293,0.0,0.8,62,0.00,,,0.00,WUHU216HW,2013-02-09 18:30:00,
2013-02-09 10:35:00,49.6,36.3,30.05,WSW,248,0.0,0.0,60,0.00,,,0.00,WUHU216HW,2013-02-09 18:35:00,
2013-02-09 10:40:00,49.8,36.0,30.05,West,270,0.0,0.0,59,0.00,,,0.00,WUHU216HW,2013-02-09 18:40:00,
2013-02-09 10:45:00,50.3,36.1,30.05,West,270,0.0,0.0,58,0.00,,,0.00,WUHU216HW,2013-02-09 18:45:00,
2013-02-09 10:50:00,50.7,36.4,30.05,SSE,158,0.0,0.0,58,0.00,,,0.00,WUHU216HW,2013-02-09 18:50:00,
2013-02-09 10:55:00,51.0,36.3,30.05,East,90,0.0,0.4,57,0.00,,,0.00,WUHU216HW,2013-02-09 18:55:00,
2013-02-09 11:00:00,51.6,35.8,30.04,WSW,248,0.0,0.4,55,0.00,,,0.00,WUHU216HW,2013-02-09 19:00:00,
2013-02-09 11:05:00,51.6,35.4,30.04,SSW,203,0.0,1.1,54,0.00,,,0.00,WUHU216HW,2013-02-09 19:05:00,
2013-02-09 11:10:00,51.9,35.3,30.04,SSE,158,0.0,1.1,53,0.00,,,0.00,WUHU216HW,2013-02-09 19:10:00,
2013-02-09 11:15:00,52.3,34.7,30.04,NNW,338,0.0,0.0,51,0.00,,,0.00,WUHU216HW,2013-02-09 19:15:00,
2013-02-09 11:21:00,52.5,34.4,30.05,WNW,293,0.0,0.0,50,0.00,,,0.00,WUHU216HW,2013-02-09 19:21:00,
2013-02-09 11:26:00,52.8,34.7,30.05,WNW,293,0.0,0.0,50,0.00,,,0.00,WUHU216HW,2013-02-09 19:26:00,
2013-02-09 11:31:00,52.8,34.2,30.04,East,90,0.8,0.8,49,0.00,,,0.00,WUHU216HW,2013-02-09 19:31:00,
2013-02-09 11:36:00,53.2,34.5,30.04,WNW,293,1.1,1.3,49,0.00,,,0.00,WUHU216HW,2013-02-09 19:36:00,
2013-02-09 11:41:00,53.7,34.4,30.04,SE,135,0.0,1.7,48,0.00,,,0.00,WUHU216HW,2013-02-09 19:41:00,
2013-02-09 11:46:00,54.1,34.2,30.04,West,270,0.0,1.7,47,0.00,,,0.00,WUHU216HW,2013-02-09 19:46:00,
2013-02-09 11:51:00,54.1,33.6,30.04,SW,225,0.0,0.0,46,0.00,,,0.00,WUHU216HW,2013-02-09 19:51:00,
2013-02-09 11:56:00,54.3,33.8,30.04,SW,225,0.0,0.0,46,0.00,,,0.00,WUHU216HW,2013-02-09 19:56:00,
2013-02-09 12:01:00,54.5,33.9,30.04,SSW,203,0.0,0.0,46,0.00,,,0.00,WUHU216HW,2013-02-09 20:01:00,
2013-02-09 12:06:00,54.8,33.7,30.04,SSW,203,0.0,0.0,45,0.00,,,0.00,WUHU216HW,2013-02-09 20:06:00,
2013-02-09 12:11:00,54.8,33.2,30.04,West,270,0.0,0.0,44,0.00,,,0.00,WUHU216HW,2013-02-09 20:11:00,
2013-02-09 12:17:00,55.2,33.5,30.04,West,270,0.0,0.0,44,0.00,,,0.00,WUHU216HW,2013-02-09 20:17:00,
2013-02-09 12:22:00,55.2,32.9,30.04,West,270,0.0,0.0,43,0.00,,,0.00,WUHU216HW,2013-02-09 20:22:00,
2013-02-09 12:27:00,55.2,32.9,30.04,SSE,158,0.8,0.8,43,0.00,,,0.00,WUHU216HW,2013-02-09 20:27:00,
2013-02-09 12:32:00,55.5,33.8,30.03,SW,225,0.0,0.8,44,0.00,,,0.00,WUHU216HW,2013-02-09 20:32:00,
2013-02-09 12:37:00,55.9,33.0,30.03,WNW,293,0.0,0.0,42,0.00,,,0.00,WUHU216HW,2013-02-09 20:37:00,
2013-02-09 12:42:00,55.9,33.0,30.04,West,270,1.1,1.1,42,0.00,,,0.00,WUHU216HW,2013-02-09 20:42:00,
2013-02-09 12:47:00,56.1,33.2,30.03,West,270,0.0,1.1,42,0.00,,,0.00,WUHU216HW,2013-02-09 20:47:00,
2013-02-09 12:52:00,56.4,34.1,30.03,ESE,113,0.8,0.8,43,0.00,,,0.00,WUHU216HW,2013-02-09 20:52:00,
2013-02-09 12:57:00,57.0,34.6,30.03,ESE,113,1.1,2.2,43,0.00,,,0.00,WUHU216HW,2013-02-09 20:57:00,
2013-02-09 13:02:00,57.3,34.3,30.03,ESE,113,0.0,2.2,42,0.00,,,0.00,WUHU216HW,2013-02-09 21:02:00,
2013-02-09 13:07:00,57.3,34.3,30.03,South,180,0.0,1.1,42,0.00,,,0.00,WUHU216HW,2013-02-09 21:07:00,
2013-02-09 13:12:00,57.7,34.7,30.03,WSW,248,0.0,2.6,42,0.00,,,0.00,WUHU216HW,2013-02-09 21:12:00,
2013-02-09 13:17:00,57.9,34.8,30.03,SSW,203,0.0,2.6,42,0.00,,,0.00,WUHU216HW,2013-02-09 21:17:00,
2013-02-09 13:22:00,58.2,34.6,30.03,SSW,203,0.0,0.0,41,0.00,,,0.00,WUHU216HW,2013-02-09 21:22:00,
2013-02-09 13:27:00,58.6,34.9,30.03,West,270,0.0,4.0,41,0.00,,,0.00,WUHU216HW,2013-02-09 21:27:00,
2013-02-09 13:32:00,58.6,33.6,30.03,West,270,0.0,4.0,39,0.00,,,0.00,WUHU216HW,2013-02-09 21:32:00,
2013-02-09 13:38:00,58.6,34.3,30.03,West,270,4.0,4.0,40,0.00,,,0.00,WUHU216HW,2013-02-09 21:38:00,
2013-02-09 13:43:00,58.8,34.5,30.03,SW,225,0.0,4.0,40,0.00,,,0.00,WUHU216HW,2013-02-09 21:43:00,
2013-02-09 13:48:00,58.8,34.5,30.03,WSW,248,0.0,0.0,40,0.00,,,0.00,WUHU216HW,2013-02-09 21:48:00,
2013-02-09 13:53:00,58.8,33.1,30.03,WNW,293,0.0,1.5,38,0.00,,,0.00,WUHU216HW,2013-02-09 21:53:00,
2013-02-09 13:58:00,58.8,33.8,30.03,WNW,293,0.0,1.5,39,0.00,,,0.00,WUHU216HW,2013-02-09 21:58:00,
2013-02-09 14:03:00,58.8,33.8,30.03,WNW,293,0.0,0.0,39,0.00,,,0.00,WUHU216HW,2013-02-09 22:03:00,
2013-02-09 14:08:00,58.8,33.1,30.02,SE,135,0.8,0.8,38,0.00,,,0.00,WUHU216HW,2013-02-09 22:08:00,
2013-02-09 14:13:00,59.3,33.6,30.02,SE,135,0.0,1.5,38,0.00,,,0.00,WUHU216HW,2013-02-09 22:13:00,
2013-02-09 14:18:00,59.7,34.4,30.02,West,270,0.0,1.5,38,0.00,,,0.00,WUHU216HW,2013-02-09 22:18:00,
2013-02-09 14:23:00,59.5,33.7,30.02,WSW,248,1.3,1.3,38,0.00,,,0.00,WUHU216HW,2013-02-09 22:23:00,
2013-02-09 14:28:00,59.7,34.6,30.01,SW,225,0.0,2.2,39,0.00,,,0.00,WUHU216HW,2013-02-09 22:28:00,
2013-02-09 14:33:00,59.9,34.0,30.02,WNW,293,0.6,2.2,38,0.00,,,0.00,WUHU216HW,2013-02-09 22:33:00,
2013-02-09 14:39:00,59.9,34.0,30.02,WSW,248,0.0,0.8,38,0.00,,,0.00,WUHU216HW,2013-02-09 22:39:00,
2013-02-09 14:44:00,59.9,34.0,30.02,WSW,248,0.0,0.6,38,0.00,,,0.00,WUHU216HW,2013-02-09 22:44:00,
2013-02-09 14:49:00,60.0,34.9,30.01,SW,225,0.0,0.0,39,0.00,,,0.00,WUHU216HW,2013-02-09 22:49:00,
2013-02-09 14:54:00,60.0,34.2,30.02,SSW,203,0.0,0.0,38,0.00,,,0.00,WUHU216HW,2013-02-09 22:54:00,
2013-02-09 14:59:00,60.0,34.2,30.02,WNW,293,0.0,0.0,38,0.00,,,0.00,WUHU216HW,2013-02-09 22:59:00,
2013-02-09 15:04:00,60.0,34.2,30.02,WSW,248,0.0,0.0,38,0.00,,,0.00,WUHU216HW,2013-02-09 23:04:00,
2013-02-09 15:09:00,60.4,34.5,30.02,West,270,0.0,0.0,38,0.00,,,0.00,WUHU216HW,2013-02-09 23:09:00,
2013-02-09 15:14:00,61.1,38.9,30.02,SSE,158,2.0,2.0,44,0.00,,,0.00,WUHU216HW,2013-02-09 23:14:00,
2013-02-09 15:19:00,61.8,39.5,30.03,SSW,203,2.2,2.4,44,0.00,,,0.00,WUHU216HW,2013-02-09 23:19:00,
2013-02-09 15:24:00,62.0,38.0,30.02,SSE,158,4.6,4.6,41,0.00,,,0.00,WUHU216HW,2013-02-09 23:24:00,
2013-02-09 15:29:00,61.8,37.2,30.03,SW,225,2.2,6.4,40,0.00,,,0.00,WUHU216HW,2013-02-09 23:29:00,
2013-02-09 15:34:00,61.8,37.8,30.02,SW,225,0.8,6.4,41,0.00,,,0.00,WUHU216HW,2013-02-09 23:34:00,
2013-02-09 15:39:00,62.2,38.1,30.03,SSE,158,0.0,4.9,41,0.00,,,0.00,WUHU216HW,2013-02-09 23:39:00,
2013-02-09 15:44:00,61.8,37.8,30.02,SSW,203,2.2,5.5,41,0.00,,,0.00,WUHU216HW,2013-02-09 23:44:00,
2013-02-09 15:50:00,61.5,38.1,30.02,SW,225,0.0,5.5,42,0.00,,,0.00,WUHU216HW,2013-02-09 23:50:00,
2013-02-09 15:55:00,61.1,37.7,30.02,ESE,113,3.1,3.1,42,0.00,,,0.00,WUHU216HW,2013-02-09 23:55:00,
2013-02-09 16:00:00,60.6,37.8,30.02,South,180,5.5,5.5,43,0.00,,,0.00,WUHU216HW,2013-02-10 00:00:00,
2013-02-09 16:05:00,60.0,37.4,30.02,South,180,1.1,5.5,43,0.00,,,0.00,WUHU216HW,2013-02-10 00:05:00,
2013-02-09 16:10:00,59.5,36.9,30.02,SW,225,0.0,4.2,43,0.00,,,0.00,WUHU216HW,2013-02-10 00:10:00,
2013-02-09 16:15:00,58.8,36.8,30.03,SW,225,3.3,4.9,44,0.00,,,0.00,WUHU216HW,2013-02-10 00:15:00,
2013-02-09 16:20:00,58.8,36.8,30.03,SSW,203,0.8,4.9,44,0.00,,,0.00,WUHU216HW,2013-02-10 00:20:00,
2013-02-09 16:25:00,58.8,36.8,30.02,SW,225,0.0,2.9,44,0.00,,,0.00,WUHU216HW,2013-02-10 00:25:00,
2013-02-09 16:30:00,58.8,37.4,30.02,South,180,0.0,1.7,45,0.00,,,0.00,WUHU216HW,2013-02-10 00:30:00,
2013-02-09 16:35:00,59.5,37.4,30.02,SW,225,3.8,3.8,44,0.00,,,0.00,WUHU216HW,2013-02-10 00:35:00,
2013-02-09 16:40:00,59.5,38.0,30.02,SSW,203,3.1,3.8,45,0.00,,,0.00,WUHU216HW,2013-02-10 00:40:00,
2013-02-09 16:45:00,59.5,38.0,30.02,SSW,203,2.0,3.8,45,0.00,,,0.00,WUHU216HW,2013-02-10 00:45:00,
2013-02-09 16:51:00,59.9,38.3,30.02,SE,135,3.5,3.5,45,0.00,,,0.00,WUHU216HW,2013-02-10 00:51:00,
2013-02-09 16:56:00,59.5,37.4,30.02,South,180,0.0,3.5,44,0.00,,,0.00,WUHU216HW,2013-02-10 00:56:00,
2013-02-09 17:01:00,59.0,37.5,30.02,SSE,158,2.0,3.5,45,0.00,,,0.00,WUHU216HW,2013-02-10 01:01:00,
2013-02-09 17:06:00,59.0,38.1,30.02,SSE,158,2.4,2.4,46,0.00,,,0.00,WUHU216HW,2013-02-10 01:06:00,
2013-02-09 17:11:00,58.8,37.9,30.02,SSE,158,0.0,2.4,46,0.00,,,0.00,WUHU216HW,2013-02-10 01:11:00,
2013-02-09 17:16:00,58.8,37.9,30.02,SSE,158,0.0,2.6,46,0.00,,,0.00,WUHU216HW,2013-02-10 01:16:00,
2013-02-09 17:21:00,58.2,36.9,30.02,SSW,203,0.0,4.0,45,0.00,,,0.00,WUHU216HW,2013-02-10 01:21:00,
2013-02-09 17:26:00,57.9,37.7,30.02,SSE,158,3.5,4.0,47,0.00,,,0.00,WUHU216HW,2013-02-10 01:26:00,
2013-02-09 17:31:00,58.2,38.6,30.02,SSE,158,2.0,3.5,48,0.00,,,0.00,WUHU216HW,2013-02-10 01:31:00,
2013-02-09 17:36:00,58.1,38.4,30.03,SSE,158,4.2,4.2,48,0.00,,,0.00,WUHU216HW,2013-02-10 01:36:00,
2013-02-09 17:41:00,57.9,38.3,30.03,SE,135,2.0,4.2,48,0.00,,,0.00,WUHU216HW,2013-02-10 01:41:00,
2013-02-09 17:46:00,57.5,38.0,30.03,SSE,158,0.0,3.3,48,0.00,,,0.00,WUHU216HW,2013-02-10 01:46:00,
2013-02-09 17:51:00,57.0,37.5,30.03,SSE,158,0.0,3.3,48,0.00,,,0.00,WUHU216HW,2013-02-10 01:51:00,
2013-02-09 17:56:00,56.3,37.3,30.03,SSE,158,0.0,0.0,49,0.00,,,0.00,WUHU216HW,2013-02-10 01:56:00,
2013-02-09 18:01:00,55.2,36.3,30.03,SSE,158,0.0,0.0,49,0.00,,,0.00,WUHU216HW,2013-02-10 02:01:00,
2013-02-09 18:06:00,54.8,36.5,30.04,SE,135,0.0,0.0,50,0.00,,,0.00,WUHU216HW,2013-02-10 02:06:00,
2013-02-09 18:11:00,54.3,36.0,30.04,SE,135,0.0,0.0,50,0.00,,,0.00,WUHU216HW,2013-02-10 02:11:00,
2013-02-09 18:17:00,53.7,35.5,30.04,ESE,113,0.0,0.0,50,0.00,,,0.00,WUHU216HW,2013-02-10 02:17:00,
2013-02-09 18:22:00,53.4,35.2,30.04,ESE,113,0.0,0.0,50,0.00,,,0.00,WUHU216HW,2013-02-10 02:22:00,
2013-02-09 18:27:00,53.0,34.9,30.04,ESE,113,0.0,0.0,50,0.00,,,0.00,WUHU216HW,2013-02-10 02:27:00,
2013-02-09 18:32:00,52.7,35.0,30.04,ESE,113,0.0,0.0,51,0.00,,,0.00,WUHU216HW,2013-02-10 02:32:00,
2013-02-09 18:37:00,52.5,34.8,30.05,ESE,113,0.0,0.0,51,0.00,,,0.00,WUHU216HW,2013-02-10 02:37:00,
2013-02-09 18:42:00,52.1,34.5,30.05,ESE,113,0.0,0.0,51,0.00,,,0.00,WUHU216HW,2013-02-10 02:42:00,
2013-02-09 18:47:00,51.6,34.0,30.05,ESE,113,0.0,0.0,51,0.00,,,0.00,WUHU216HW,2013-02-10 02:47:00,
2013-02-09 18:52:00,51.4,34.3,30.05,ESE,113,0.0,0.0,52,0.00,,,0.00,WUHU216HW,2013-02-10 02:52:00,
2013-02-09 18:57:00,51.2,34.2,30.05,ESE,113,0.0,0.0,52,0.00,,,0.00,WUHU216HW,2013-02-10 02:57:00,
2013-02-09 19:02:00,50.9,33.8,30.05,ESE,113,0.0,0.0,52,0.00,,,0.00,WUHU216HW,2013-02-10 03:02:00,
2013-02-09 19:08:00,50.7,33.7,30.05,ESE,113,0.0,0.0,52,0.00,,,0.00,WUHU216HW,2013-02-10 03:08:00,
2013-02-09 19:13:00,50.7,34.1,30.05,ESE,113,0.0,0.0,53,0.00,,,0.00,WUHU216HW,2013-02-10 03:13:00,
2013-02-09 19:18:00,50.5,34.0,30.05,ESE,113,0.0,0.0,53,0.00,,,0.00,WUHU216HW,2013-02-10 03:18:00,
2013-02-09 19:23:00,50.5,34.0,30.05,ESE,113,0.0,0.0,53,0.00,,,0.00,WUHU216HW,2013-02-10 03:23:00,
2013-02-09 19:28:00,50.3,33.8,30.06,ESE,113,0.0,0.0,53,0.00,,,0.00,WUHU216HW,2013-02-10 03:28:00,
2013-02-09 19:33:00,50.1,33.6,30.06,ESE,113,0.0,0.0,53,0.00,,,0.00,WUHU216HW,2013-02-10 03:33:00,
2013-02-09 19:38:00,49.8,33.8,30.06,ESE,113,0.0,0.0,54,0.00,,,0.00,WUHU216HW,2013-02-10 03:38:00,
2013-02-09 19:43:00,49.8,33.8,30.06,ESE,113,0.0,0.0,54,0.00,,,0.00,WUHU216HW,2013-02-10 03:43:00,
2013-02-09 19:48:00,49.6,33.6,30.06,ESE,113,0.0,0.0,54,0.00,,,0.00,WUHU216HW,2013-02-10 03:48:00,
2013-02-09 19:53:00,49.2,33.2,30.06,ESE,113,0.0,0.0,54,0.00,,,0.00,WUHU216HW,2013-02-10 03:53:00,
2013-02-09 19:58:00,49.1,33.1,30.06,ESE,113,0.0,0.0,54,0.00,,,0.00,WUHU216HW,2013-02-10 03:58:00,
2013-02-09 20:03:00,48.9,33.4,30.06,ESE,113,0.0,0.0,55,0.00,,,0.00,WUHU216HW,2013-02-10 04:03:00,
2013-02-09 20:08:00,48.9,33.4,30.06,ESE,113,0.0,0.0,55,0.00,,,0.00,WUHU216HW,2013-02-10 04:08:00,
2013-02-09 20:13:00,48.9,33.4,30.06,ESE,113,0.0,0.0,55,0.00,,,0.00,WUHU216HW,2013-02-10 04:13:00,
2013-02-09 20:18:00,48.7,33.2,30.07,ESE,113,0.0,0.0,55,0.00,,,0.00,WUHU216HW,2013-02-10 04:18:00,
2013-02-09 20:23:00,48.7,33.2,30.07,ESE,113,0.0,0.0,55,0.00,,,0.00,WUHU216HW,2013-02-10 04:23:00,
2013-02-09 20:29:00,48.5,33.0,30.07,ESE,113,0.0,0.0,55,0.00,,,0.00,WUHU216HW,2013-02-10 04:29:00,
2013-02-09 20:34:00,48.3,33.3,30.07,ESE,113,0.0,0.0,56,0.00,,,0.00,WUHU216HW,2013-02-10 04:34:00,
2013-02-09 20:39:00,48.3,33.3,30.07,ESE,113,0.0,0.0,56,0.00,,,0.00,WUHU216HW,2013-02-10 04:39:00,
2013-02-09 20:44:00,48.3,33.3,30.07,ESE,113,0.0,0.0,56,0.00,,,0.00,WUHU216HW,2013-02-10 04:44:00,
2013-02-09 20:49:00,48.0,33.0,30.07,ESE,113,0.0,0.0,56,0.00,,,0.00,WUHU216HW,2013-02-10 04:49:00,
2013-02-09 20:54:00,48.0,33.0,30.07,ESE,113,0.0,0.0,56,0.00,,,0.00,WUHU216HW,2013-02-10 04:54:00,
2013-02-09 20:59:00,48.0,33.0,30.07,ESE,113,0.0,0.0,56,0.00,,,0.00,WUHU216HW,2013-02-10 04:59:00,
2013-02-09 21:00:00,48.0,33.0,30.07,ESE,113,0.0,0.0,56,0.00,,,0.00,WUHU216HW,2013-02-10 05:00:00,
2013-02-09 21:02:00,48.0,33.0,30.07,ESE,113,0.0,0.0,56,0.00,,,0.00,WUHU216HW,2013-02-10 05:02:00,
2013-02-09 21:07:00,47.8,32.8,30.06,ESE,113,0.0,0.0,56,0.00,,,0.00,WUHU216HW,2013-02-10 05:07:00,
2013-02-09 21:12:00,47.4,33.1,30.07,ESE,113,0.0,0.0,57,0.00,,,0.00,WUHU216HW,2013-02-10 05:12:00,
2013-02-09 21:17:00,47.4,32.9,30.07,ESE,113,0.0,0.0,57,0.00,,,0.00,WUHU216HW,2013-02-10 05:17:00,
2013-02-09 21:22:00,47.4,32.9,30.07,ESE,113,0.0,0.0,57,0.00,,,0.00,WUHU216HW,2013-02-10 05:22:00,
2013-02-09 21:27:00,47.4,32.9,30.07,ESE,113,0.0,0.0,57,0.00,,,0.00,WUHU216HW,2013-02-10 05:27:00,
2013-02-09 21:32:00,47.4,32.9,30.06,ESE,113,0.0,0.0,57,0.00,,,0.00,WUHU216HW,2013-02-10 05:32:00,
2013-02-09 21:37:00,47.3,33.2,30.07,ESE,113,0.0,0.0,58,0.00,,,0.00,WUHU216HW,2013-02-10 05:37:00,
2013-02-09 21:42:00,47.1,33.0,30.07,ESE,113,0.0,0.0,58,0.00,,,0.00,WUHU216HW,2013-02-10 05:42:00,
2013-02-09 21:47:00,47.1,33.0,30.07,ESE,113,0.0,0.0,58,0.00,,,0.00,WUHU216HW,2013-02-10 05:47:00,
2013-02-09 21:53:00,46.9,32.8,30.07,ESE,113,0.0,0.0,58,0.00,,,0.00,WUHU216HW,2013-02-10 05:53:00,
2013-02-09 21:58:00,46.9,32.8,30.06,ESE,113,0.0,0.0,58,0.00,,,0.00,WUHU216HW,2013-02-10 05:58:00,
2013-02-09 22:03:00,46.7,32.7,30.07,ESE,113,0.0,0.0,58,0.00,,,0.00,WUHU216HW,2013-02-10 06:03:00,
2013-02-09 22:08:00,46.5,32.9,30.07,ESE,113,0.0,0.0,59,0.00,,,0.00,WUHU216HW,2013-02-10 06:08:00,
2013-02-09 22:13:00,46.5,32.9,30.07,ESE,113,0.0,0.0,59,0.00,,,0.00,WUHU216HW,2013-02-10 06:13:00,
2013-02-09 22:18:00,46.5,32.9,30.06,ESE,113,0.0,0.0,59,0.00,,,0.00,WUHU216HW,2013-02-10 06:18:00,
2013-02-09 22:23:00,46.2,32.6,30.06,ESE,113,0.0,0.0,59,0.00,,,0.00,WUHU216HW,2013-02-10 06:23:00,
2013-02-09 22:28:00,46.2,32.6,30.07,ESE,113,0.0,0.0,59,0.00,,,0.00,WUHU216HW,2013-02-10 06:28:00,
2013-02-09 22:33:00,46.2,33.0,30.06,ESE,113,0.0,0.0,60,0.00,,,0.00,WUHU216HW,2013-02-10 06:33:00,
2013-02-09 22:38:00,46.0,32.4,30.06,ESE,113,0.0,0.0,59,0.00,,,0.00,WUHU216HW,2013-02-10 06:38:00,
2013-02-09 22:43:00,45.6,32.6,30.07,ESE,113,0.0,0.0,60,0.00,,,0.00,WUHU216HW,2013-02-10 06:43:00,
2013-02-09 22:48:00,45.6,32.6,30.07,ESE,113,0.0,0.0,60,0.00,,,0.00,WUHU216HW,2013-02-10 06:48:00,
2013-02-09 22:53:00,45.5,32.4,30.06,ESE,113,0.0,0.0,60,0.00,,,0.00,WUHU216HW,2013-02-10 06:53:00,
2013-02-09 22:58:00,45.5,32.4,30.06,ESE,113,0.0,0.0,60,0.00,,,0.00,WUHU216HW,2013-02-10 06:58:00,
2013-02-09 23:04:00,45.3,32.2,30.06,ESE,113,0.0,0.0,60,0.00,,,0.00,WUHU216HW,2013-02-10 07:04:00,
2013-02-09 23:09:00,45.3,32.2,30.06,ESE,113,0.0,0.0,60,0.00,,,0.00,WUHU216HW,2013-02-10 07:09:00,
2013-02-09 23:14:00,45.3,32.6,30.06,ESE,113,0.0,0.0,61,0.00,,,0.00,WUHU216HW,2013-02-10 07:14:00,
2013-02-09 23:19:00,45.1,32.5,30.06,ESE,113,0.0,0.0,61,0.00,,,0.00,WUHU216HW,2013-02-10 07:19:00,
2013-02-09 23:24:00,45.1,32.1,30.06,ESE,113,0.0,0.0,60,0.00,,,0.00,WUHU216HW,2013-02-10 07:24:00,
2013-02-09 23:29:00,45.1,32.1,30.06,ESE,113,0.0,0.0,60,0.00,,,0.00,WUHU216HW,2013-02-10 07:29:00,
2013-02-09 23:34:00,45.1,32.1,30.06,ESE,113,0.0,0.0,60,0.00,,,0.00,WUHU216HW,2013-02-10 07:34:00,
2013-02-09 23:39:00,45.1,32.1,30.06,ESE,113,0.0,0.0,60,0.00,,,0.00,WUHU216HW,2013-02-10 07:39:00,
2013-02-09 23:44:00,45.1,32.1,30.06,ESE,113,0.0,0.0,60,0.00,,,0.00,WUHU216HW,2013-02-10 07:44:00,
2013-02-09 23:49:00,45.1,32.1,30.06,ESE,113,0.0,0.0,60,0.00,,,0.00,WUHU216HW,2013-02-10 07:49:00,
2013-02-09 23:54:00,45.1,32.1,30.06,ESE,113,0.0,0.0,60,0.00,,,0.00,WUHU216HW,2013-02-10 07:54:00,
2013-02-09 23:59:00,45.1,32.1,30.06,ESE,113,0.0,0.0,60,0.00,,,0.00,WUHU216HW,2013-02-10 07:59:00,